Location: ???????
(38.3360°N, 23.6977°E)
Time: 05:04:14
(UTC+00:00)

ATLAS 2AS CENTAUR R/B - Pass Details

Date: 17 November 2025
Orbit: 1047 x 1163 km, 63.7° (Epoch: 09 December)

Event Time Altitude Azimuth Distance (km) Brightness Sun altitude
Rises 18:20:36 0° 330° (NNW) 3,832 6.0 -37.1°
Reaches altitude 10° 18:23:19 10° 334° (NNW) 2,869 5.2 -37.6°
Enters shadow 18:25:35 22° 341° (NNW) 2,099 4.4 -38.0°
